EW3206 Weather Reports


Display with metric or nautical units.
time (UTC)temp
F
wind
direction
speed
MPH
gust
MPH
rain 1hr
in
rain 24hr
in
rain mn
in
humidity
%
barometer
mb
20260905075310 63 298 8.0 19.0 0.00 0.00 0.00 81 17.3
20260905074310 63 259 8.0 15.0 0.00 0.00 0.00 84 17.2
20260905071310 60 259 5.0 9.0 0.00 0.00 0.00 88 16.9
20260905065310 58 247 7.0 12.0 0.00 0.00 0.00 89 16.9
20260905064310 57 267 7.0 12.0 0.00 0.00 0.00 90 16.8
20260905063311 56 279 5.0 9.0 0.00 0.00 0.00 91 16.5
20260905061310 55 248 2.0 7.0 0.00 0.00 0.00 91 16.5
20260905054310 54 247 0.0 3.0 0.00 0.00 0.00 90 16.1
20260905052311 54 278 2.0 6.0 0.00 0.00 0.00 90 16.0
20260905051310 54 276 1.0 3.0 0.00 0.00 0.00 90 15.9
20260905045311 54 220 1.0 4.0 0.00 0.00 0.00 90 15.6
20260905044310 54 246 1.0 3.0 0.00 0.00 0.00 89 15.7
20260905043310 54 257 0.0 2.0 0.00 0.00 0.00 89 15.5
20260905042310 54 256 0.0 1.0 0.00 0.00 0.00 88 15.7
20260905035310 55 252 0.0 3.0 0.00 0.00 0.00 88 15.4
20260905034310 55 221 0.0 5.0 0.00 0.00 0.00 88 15.3
20260905033310 55 240 2.0 4.0 0.00 0.00 0.00 88 15.2
20260905031310 55 261 1.0 4.0 0.00 0.00 0.00 87 15.0
20260905030310 55 269 1.0 4.0 0.00 0.00 0.00 87 15.0
20260905025310 56 252 2.0 4.0 0.00 0.00 0.00 87 14.9
20260905024310 56 258 1.0 6.0 0.00 0.00 0.00 87 14.8
20260905023310 56 269 3.0 4.0 0.00 0.00 0.00 87 14.9
20260905022310 56 250 1.0 6.0 0.00 0.00 0.00 87 14.8
20260905021310 56 296 2.0 7.0 0.00 0.00 0.00 87 14.9
20260905015310 56 263 3.0 7.0 0.00 0.00 0.00 87 14.6
20260905014310 56 247 2.0 7.0 0.00 0.00 0.00 87 14.7
20260905013310 56 250 2.0 6.0 0.00 0.00 0.00 86 14.7
20260905012310 56 256 3.0 7.0 0.00 0.00 0.00 86 14.7
20260905011311 56 261 1.0 6.0 0.00 0.00 0.00 86 14.8
20260905005310 56 252 2.0 3.0 0.00 0.00 0.00 85 14.5
20260905003311 57 238 0.0 6.0 0.00 0.00 0.00 85 14.5
20260905002310 57 260 1.0 6.0 0.00 0.00 0.00 85 14.6
20260904235310 57 260 2.0 6.0 0.00 0.00 0.00 84 14.3
20260904234310 58 273 2.0 8.0 0.00 0.00 0.00 84 14.3
20260904233310 58 250 3.0 7.0 0.00 0.00 0.00 83 14.3
20260904232309 58 251 2.0 6.0 0.00 0.00 0.00 83 14.1
20260904231310 58 263 2.0 7.0 0.00 0.00 0.00 83 14.1
20260904225310 58 285 2.0 6.0 0.00 0.00 0.00 82 14.0
20260904224309 59 296 3.0 7.0 0.00 0.00 0.00 82 14.1
20260904223309 59 263 2.0 8.0 0.00 0.00 0.00 81 14.0
20260904222310 59 282 4.0 8.0 0.00 0.00 0.00 81 13.8
20260904221310 60 274 3.0 8.0 0.00 0.00 0.00 80 13.8
20260904220310 60 255 3.0 6.0 0.00 0.00 0.00 80 13.8
20260904215310 60 273 4.0 8.0 0.00 0.24 0.24 79 13.7
20260904214311 60 274 5.0 8.0 0.00 0.24 0.24 79 13.7
20260904213310 60 298 6.0 9.0 0.00 0.24 0.24 78 13.5
20260904212311 61 278 4.0 8.0 0.00 0.24 0.24 78 13.6
20260904211310 61 285 4.0 8.0 0.00 0.24 0.24 78 13.5
20260904205311 62 285 7.0 11.0 0.00 0.24 0.24 77 13.6
20260904204310 62 307 3.0 9.0 0.00 0.24 0.24 78 13.6
20260904202311 62 275 4.0 11.0 0.00 0.24 0.24 77 13.3
20260904195310 62 300 2.0 10.0 0.00 0.24 0.24 76 13.0
20260904194310 63 309 3.0 9.0 0.00 0.24 0.24 76 12.9
20260904193311 63 276 4.0 12.0 0.00 0.24 0.24 75 12.9
20260904192310 63 286 5.0 12.0 0.00 0.24 0.24 74 12.8
20260904191311 63 294 4.0 9.0 0.00 0.24 0.24 73 12.6
20260904184310 64 321 7.0 16.0 0.00 0.24 0.24 75 12.3
20260904183310 64 327 4.0 12.0 0.00 0.24 0.24 76 12.2
20260904181310 64 327 5.0 15.0 0.00 0.24 0.24 76 12.2
20260904175310 64 323 4.0 12.0 0.00 0.24 0.24 76 11.9
20260904174310 65 293 6.0 13.0 0.00 0.24 0.24 76 11.8
20260904173310 65 275 8.0 16.0 0.00 0.24 0.24 77 11.6
20260904172310 65 240 6.0 11.0 0.00 0.24 0.24 76 11.2
20260904171310 65 304 8.0 14.0 0.00 0.24 0.24 75 11.1
20260904165310 65 311 6.0 13.0 0.00 0.24 0.24 78 11.0
20260904164310 65 333 6.0 12.0 0.00 0.24 0.24 80 11.0
20260904163310 66 314 3.0 15.0 0.00 0.24 0.24 79 11.0
20260904162310 66 277 7.0 12.0 0.00 0.24 0.24 79 10.6
20260904161310 66 292 7.0 18.0 0.00 0.24 0.24 78 10.7
20260904155310 66 304 7.0 18.0 0.00 0.24 0.24 80 10.4
20260904154311 67 279 12.0 22.0 0.00 0.24 0.24 81 10.4
20260904153310 67 290 11.0 18.0 0.00 0.24 0.24 83 10.3
20260904152309 67 261 8.0 13.0 0.00 0.24 0.24 84 10.3
20260904151310 67 286 5.0 15.0 0.00 0.24 0.24 84 10.2
20260904144310 66 355 10.0 18.0 0.01 0.24 0.24 85 10.3
20260904143310 66 288 5.0 18.0 0.01 0.24 0.24 87 9.9
20260904142310 66 280 8.0 18.0 0.01 0.24 0.24 88 9.8
20260904135310 65 355 9.0 15.0 0.01 0.24 0.24 90 9.6
20260904134310 65 273 7.0 14.0 0.01 0.24 0.24 90 9.5
20260904133311 65 312 8.0 17.0 0.02 0.24 0.24 90 9.4
20260904132310 65 308 6.0 14.0 0.03 0.24 0.24 92 9.4
20260904131311 65 290 7.0 13.0 0.03 0.24 0.24 92 9.4
20260904125311 65 355 11.0 23.0 0.05 0.24 0.24 90 9.4
20260904124310 65 304 6.0 12.0 0.05 0.23 0.23 91 9.3
20260904123310 65 229 6.0 12.0 0.06 0.22 0.22 92 9.2
20260904122310 65 268 5.0 14.0 0.17 0.20 0.20 91 9.1
20260904115310 65 298 7.0 13.0 0.17 0.19 0.19 91 9.0
20260904114310 65 327 6.0 12.0 0.17 0.18 0.18 90 8.9
20260904113310 65 355 5.0 12.0 0.15 0.16 0.16 88 8.8
20260904112310 66 304 4.0 9.0 0.03 0.04 0.04 86 8.8
20260904105310 69 271 8.0 22.0 0.02 0.02 0.02 88 8.3
20260904104310 69 262 11.0 18.0 0.02 0.02 0.02 87 8.4
20260904103309 70 273 7.0 15.0 0.01 0.01 0.01 87 8.7
20260904102310 70 278 12.0 24.0 0.01 0.01 0.01 85 8.5
20260904101310 71 292 15.0 27.0 0.00 0.00 0.00 83 8.4
20260904095310 72 243 11.0 23.0 0.00 0.00 0.00 79 8.5
20260904094310 72 264 10.0 21.0 0.00 0.00 0.00 80 8.4
20260904092311 71 273 10.0 21.0 0.00 0.00 0.00 81 8.4
20260904091309 71 266 11.0 19.0 0.00 0.00 0.00 81 8.5
20260904085310 70 279 10.0 23.0 0.00 0.00 0.00 81 8.4
20260904084310 70 244 8.0 21.0 0.00 0.00 0.00 83 8.4
20260904083310 70 246 14.0 21.0 0.00 0.00 0.00 82 8.4
20260904082310 70 245 8.0 24.0 0.00 0.00 0.00 82 8.5
20260904081310 70 285 13.0 29.0 0.00 0.00 0.00 81 8.4